AUA883 LOWW-LGSA

Flight info

Callsign AUA883
Flight time 2h 5m
Altitude 37000
Route ARSIN DCT NALOX DCT OSDUK DCT DOBAR DCT PINDO DCT PIKOS DCT LUSES DCT ATV UP169 MANOK L612 RUSOS
Aircraft A320/M-SDE3FGHIRWY/LB1

Departure

Time 2026-04-23 11:16
Airport Vienna International Airport (LOWW)

Arrival

Time 2026-04-23 13:22
Airport Chania International Airport (LGSA)
Time Latitude Longitude Altitude Speed Heading
2026-04-23 10:46 48.11652 16.56442 625 ft 0 kts 205°
2026-04-23 11:06 48.11651 16.56441 608 ft 0 kts 205°
2026-04-23 11:06 48.11647 16.56438 619 ft 1 kts 205°
2026-04-23 11:07 48.11634 16.56429 613 ft 3 kts 205°
2026-04-23 11:07 48.11599 16.56405 608 ft 8 kts 203°
2026-04-23 11:07 48.11539 16.56373 608 ft 12 kts 190°
2026-04-23 11:07 48.11480 16.56444 614 ft 12 kts 115°
2026-04-23 11:08 48.11446 16.56549 611 ft 11 kts 116°
2026-04-23 11:08 48.11406 16.56672 611 ft 10 kts 116°
2026-04-23 11:08 48.11399 16.56692 619 ft 0 kts 116°
2026-04-23 11:09 48.11397 16.56698 618 ft 3 kts 116°
2026-04-23 11:09 48.11378 16.56758 613 ft 8 kts 116°
2026-04-23 11:09 48.11344 16.56861 608 ft 13 kts 116°
2026-04-23 11:09 48.11307 16.56975 612 ft 13 kts 116°
2026-04-23 11:10 48.11264 16.57105 614 ft 13 kts 116°
2026-04-23 11:10 48.11224 16.57223 614 ft 12 kts 123°
2026-04-23 11:10 48.11158 16.57222 613 ft 7 kts 208°
2026-04-23 11:10 48.11149 16.57215 616 ft 0 kts 207°
2026-04-23 11:14 48.11133 16.57203 608 ft 9 kts 207°
2026-04-23 11:14 48.11078 16.57160 621 ft 8 kts 207°
2026-04-23 11:14 48.11055 16.57103 610 ft 6 kts 284°
2026-04-23 11:14 48.11064 16.57076 608 ft 0 kts 296°
2026-04-23 11:15 48.11072 16.57050 619 ft 11 kts 297°
2026-04-23 11:16 48.11213 16.56617 615 ft 81 kts 296°
2026-04-23 11:16 48.11548 16.55590 617 ft 136 kts 296°
2026-04-23 11:16 48.11993 16.54180 941 ft 153 kts 297°
2026-04-23 11:16 48.12089 16.52591 1618 ft 165 kts 254°
2026-04-23 11:17 48.11274 16.51264 2199 ft 190 kts 220°
2026-04-23 11:17 48.10063 16.50249 2631 ft 208 kts 218°
2026-04-23 11:17 48.08741 16.49164 3051 ft 225 kts 216°
2026-04-23 11:17 48.07232 16.48153 3424 ft 254 kts 201°
2026-04-23 11:18 48.05384 16.47814 3921 ft 279 kts 185°
2026-04-23 11:18 48.03406 16.47991 4727 ft 289 kts 177°
2026-04-23 11:18 48.01387 16.48327 5620 ft 295 kts 175°
2026-04-23 11:18 47.99330 16.48691 6467 ft 301 kts 176°
2026-04-23 11:19 47.97225 16.48592 7272 ft 305 kts 191°
2026-04-23 11:19 47.95194 16.47753 8094 ft 307 kts 206°
2026-04-23 11:19 47.93281 16.46328 8923 ft 310 kts 211°
2026-04-23 11:19 47.91353 16.44833 9758 ft 315 kts 208°
2026-04-23 11:20 47.89272 16.43696 10520 ft 323 kts 195°
2026-04-23 11:20 47.86984 16.43204 10867 ft 345 kts 180°
2026-04-23 11:20 47.84531 16.43548 11146 ft 363 kts 165°
2026-04-23 11:20 47.82059 16.44548 11715 ft 372 kts 162°
2026-04-23 11:21 47.79549 16.45568 12456 ft 376 kts 162°
2026-04-23 11:21 47.77012 16.46577 13226 ft 379 kts 162°
2026-04-23 11:21 47.74451 16.47584 13984 ft 382 kts 162°
2026-04-23 11:21 47.71865 16.48598 14629 ft 386 kts 162°
2026-04-23 11:22 47.69257 16.49640 15273 ft 389 kts 159°
2026-04-23 11:22 47.66773 16.51188 15921 ft 387 kts 147°
2026-04-23 11:22 47.64572 16.53444 16569 ft 383 kts 134°
2026-04-23 11:22 47.62751 16.56293 17211 ft 379 kts 122°
2026-04-23 11:23 47.61371 16.59593 17857 ft 375 kts 110°
2026-04-23 11:23 47.60326 16.63139 18500 ft 376 kts 108°
2026-04-23 11:23 47.59269 16.66706 19055 ft 381 kts 111°
2026-04-23 11:23 47.57806 16.70038 19585 ft 393 kts 126°
2026-04-23 11:24 47.55786 16.72827 20124 ft 404 kts 140°
2026-04-23 11:24 47.53337 16.74839 20657 ft 414 kts 155°
2026-04-23 11:24 47.50532 16.75937 21184 ft 422 kts 171°
2026-04-23 11:24 47.47583 16.76267 21704 ft 427 kts 174°
2026-04-23 11:25 47.44608 16.76546 22246 ft 430 kts 174°
2026-04-23 11:25 47.41613 16.76824 22782 ft 433 kts 174°
2026-04-23 11:25 47.38596 16.77107 23295 ft 435 kts 174°
2026-04-23 11:25 47.35566 16.77391 23799 ft 438 kts 174°
2026-04-23 11:26 47.32511 16.77680 24203 ft 441 kts 174°
2026-04-23 11:26 47.29437 16.77975 24603 ft 444 kts 174°
2026-04-23 11:26 47.26344 16.78275 25012 ft 447 kts 174°
2026-04-23 11:26 47.23238 16.78577 25396 ft 449 kts 174°
2026-04-23 11:27 47.20109 16.78872 25765 ft 452 kts 174°
2026-04-23 11:27 47.16958 16.79167 26105 ft 455 kts 174°
2026-04-23 11:27 47.13788 16.79467 26455 ft 458 kts 174°
2026-04-23 11:27 47.10602 16.79769 26806 ft 461 kts 174°
2026-04-23 11:28 47.07394 16.80074 27151 ft 463 kts 174°
2026-04-23 11:28 47.04168 16.80381 27485 ft 466 kts 174°
2026-04-23 11:28 47.00925 16.80690 27832 ft 468 kts 174°
2026-04-23 11:28 46.97665 16.81002 28158 ft 471 kts 173°
2026-04-23 11:29 46.94387 16.81315 28500 ft 473 kts 173°
2026-04-23 11:29 46.91131 16.81936 28819 ft 472 kts 164°
2026-04-23 11:29 46.87987 16.83261 29120 ft 469 kts 155°
2026-04-23 11:29 46.85031 16.85241 29417 ft 466 kts 146°
2026-04-23 11:30 46.82329 16.87825 29693 ft 463 kts 137°
2026-04-23 11:30 46.79871 16.90844 29968 ft 463 kts 134°
2026-04-23 11:30 46.77421 16.93905 30272 ft 464 kts 134°
2026-04-23 11:30 46.74956 16.96964 30510 ft 466 kts 134°
2026-04-23 11:31 46.72481 17.00023 30752 ft 467 kts 135°
2026-04-23 11:31 46.69998 17.03081 30984 ft 468 kts 135°
2026-04-23 11:31 46.67508 17.06142 31248 ft 468 kts 135°
2026-04-23 11:31 46.65025 17.09193 31573 ft 466 kts 135°
2026-04-23 11:32 46.62553 17.12243 31891 ft 465 kts 134°
2026-04-23 11:32 46.60088 17.15285 32204 ft 464 kts 134°
2026-04-23 11:32 46.57626 17.18317 32510 ft 463 kts 135°
2026-04-23 11:32 46.55168 17.21337 32848 ft 462 kts 135°
2026-04-23 11:33 46.52710 17.24347 33173 ft 461 kts 135°
2026-04-23 11:33 46.50260 17.27343 33493 ft 460 kts 135°
2026-04-23 11:33 46.47815 17.30329 33805 ft 459 kts 135°
2026-04-23 11:33 46.45375 17.33303 34140 ft 458 kts 135°
2026-04-23 11:34 46.42941 17.36268 34414 ft 456 kts 135°
2026-04-23 11:34 46.40513 17.39227 34686 ft 456 kts 135°
2026-04-23 11:34 46.38091 17.42180 34942 ft 455 kts 135°
2026-04-23 11:34 46.35673 17.45129 35184 ft 454 kts 135°
2026-04-23 11:35 46.33257 17.48072 35434 ft 454 kts 135°
2026-04-23 11:35 46.30841 17.51011 35657 ft 454 kts 135°
2026-04-23 11:35 46.28426 17.53944 35872 ft 453 kts 135°
2026-04-23 11:35 46.26009 17.56868 36089 ft 453 kts 136°
2026-04-23 11:36 46.23594 17.59784 36299 ft 452 kts 136°
2026-04-23 11:36 46.21178 17.62698 36512 ft 452 kts 135°
2026-04-23 11:36 46.18769 17.65599 36721 ft 451 kts 136°
2026-04-23 11:36 46.17171 17.67522 36853 ft 451 kts 136°
2026-04-23 11:37 46.14765 17.70414 37050 ft 450 kts 136°
2026-04-23 11:37 46.12356 17.73307 37152 ft 450 kts 136°
2026-04-23 11:37 46.09951 17.76196 37178 ft 450 kts 136°
2026-04-23 11:38 46.05140 17.81971 37158 ft 450 kts 136°
2026-04-23 11:38 46.00323 17.87735 37149 ft 450 kts 136°
2026-04-23 11:39 45.95503 17.93479 37154 ft 450 kts 136°
2026-04-23 11:39 45.90683 17.99209 37145 ft 450 kts 136°
2026-04-23 11:40 45.85863 18.04933 37167 ft 450 kts 136°
2026-04-23 11:40 45.81032 18.10644 37161 ft 450 kts 137°
2026-04-23 11:41 45.75578 18.15192 37160 ft 460 kts 154°
2026-04-23 11:41 45.69630 18.18579 37157 ft 460 kts 154°
2026-04-23 11:42 45.63726 18.21953 37160 ft 460 kts 154°
2026-04-23 11:42 45.57783 18.25356 37178 ft 460 kts 154°
2026-04-23 11:43 45.51837 18.28736 37167 ft 460 kts 154°
2026-04-23 11:43 45.45894 18.32113 37164 ft 460 kts 154°
2026-04-23 11:44 45.39950 18.35485 37169 ft 460 kts 154°
2026-04-23 11:44 45.34001 18.38840 37159 ft 460 kts 154°
2026-04-23 11:45 45.28057 18.42196 37161 ft 460 kts 154°
2026-04-23 11:45 45.22116 18.45551 37169 ft 460 kts 154°
2026-04-23 11:46 45.16169 18.48887 37162 ft 460 kts 154°
2026-04-23 11:46 45.10222 18.52215 37165 ft 459 kts 154°
2026-04-23 11:47 45.04280 18.55545 37148 ft 459 kts 154°
2026-04-23 11:47 44.98339 18.58864 37158 ft 459 kts 154°
2026-04-23 11:48 44.92394 18.62164 37176 ft 459 kts 154°
2026-04-23 11:48 44.86452 18.65453 37167 ft 459 kts 154°
2026-04-23 11:49 44.80512 18.68746 37169 ft 459 kts 154°
2026-04-23 11:49 44.74575 18.72034 37162 ft 458 kts 154°
2026-04-23 11:50 44.68640 18.75306 37167 ft 458 kts 154°
2026-04-23 11:50 44.62703 18.78574 37158 ft 458 kts 154°
2026-04-23 11:51 44.56769 18.81839 37167 ft 458 kts 153°
2026-04-23 11:51 44.50832 18.85096 37161 ft 458 kts 154°
2026-04-23 11:52 44.44890 18.88338 37159 ft 458 kts 154°
2026-04-23 11:52 44.38954 18.91573 37158 ft 458 kts 154°
2026-04-23 11:53 44.33020 18.94804 37161 ft 458 kts 154°
2026-04-23 11:53 44.27124 18.98005 37168 ft 458 kts 154°
2026-04-23 11:54 44.21190 19.01225 37163 ft 457 kts 154°
2026-04-23 11:54 44.15259 19.04436 37161 ft 457 kts 154°
2026-04-23 11:55 44.09329 19.07636 37151 ft 457 kts 154°
2026-04-23 11:55 44.03403 19.10822 37147 ft 456 kts 154°
2026-04-23 11:56 43.97488 19.14000 37132 ft 455 kts 154°
2026-04-23 11:56 43.91567 19.17182 37162 ft 457 kts 154°
2026-04-23 11:57 43.85628 19.20353 37147 ft 457 kts 154°
2026-04-23 11:57 43.79693 19.23521 37141 ft 457 kts 154°
2026-04-23 11:58 43.73760 19.26693 37136 ft 457 kts 154°
2026-04-23 11:58 43.67826 19.29850 37142 ft 457 kts 154°
2026-04-23 11:59 43.61886 19.32988 37140 ft 457 kts 154°
2026-04-23 11:59 43.55953 19.36134 37138 ft 457 kts 154°
2026-04-23 12:00 43.50022 19.39278 37138 ft 456 kts 154°
2026-04-23 12:00 43.44136 19.42382 37132 ft 456 kts 154°
2026-04-23 12:01 43.38203 19.45497 37130 ft 456 kts 154°
2026-04-23 12:01 43.32266 19.48602 37140 ft 456 kts 154°
2026-04-23 12:02 43.26333 19.51704 37128 ft 457 kts 154°
2026-04-23 12:02 43.20397 19.54813 37120 ft 457 kts 154°
2026-04-23 12:03 43.14451 19.57922 37116 ft 457 kts 154°
2026-04-23 12:03 43.08506 19.61021 37114 ft 457 kts 154°
2026-04-23 12:04 43.02552 19.64111 37113 ft 458 kts 154°
2026-04-23 12:04 42.96601 19.67200 37106 ft 457 kts 154°
2026-04-23 12:05 42.90648 19.70280 37101 ft 457 kts 154°
2026-04-23 12:05 42.84697 19.73349 37111 ft 457 kts 154°
2026-04-23 12:06 42.78744 19.76415 37093 ft 458 kts 155°
2026-04-23 12:06 42.69806 19.81009 37093 ft 458 kts 154°
2026-04-23 12:07 42.63838 19.84080 37108 ft 459 kts 155°
2026-04-23 12:07 42.57859 19.87129 37102 ft 459 kts 156°
2026-04-23 12:08 42.51883 19.90178 37099 ft 459 kts 155°
2026-04-23 12:08 42.45906 19.93232 37107 ft 459 kts 155°
2026-04-23 12:09 42.39932 19.96270 37100 ft 459 kts 156°
2026-04-23 12:09 42.33957 19.99301 37095 ft 459 kts 156°
2026-04-23 12:10 42.28019 20.02300 37088 ft 459 kts 156°
2026-04-23 12:10 42.22043 20.05319 37087 ft 459 kts 156°
2026-04-23 12:11 42.16048 20.08346 37076 ft 461 kts 156°
2026-04-23 12:11 42.10041 20.11367 37066 ft 461 kts 156°
2026-04-23 12:12 42.04023 20.14390 37079 ft 462 kts 157°
2026-04-23 12:12 41.97996 20.17409 37069 ft 463 kts 157°
2026-04-23 12:13 41.91959 20.20428 37063 ft 463 kts 157°
2026-04-23 12:13 41.85912 20.23450 37062 ft 464 kts 157°
2026-04-23 12:14 41.79858 20.26463 37055 ft 464 kts 158°
2026-04-23 12:14 41.73808 20.29473 37051 ft 464 kts 158°
2026-04-23 12:15 41.67761 20.32469 37055 ft 463 kts 158°
2026-04-23 12:15 41.61715 20.35466 37051 ft 463 kts 158°
2026-04-23 12:16 41.55669 20.38459 37039 ft 463 kts 159°
2026-04-23 12:16 41.49622 20.41439 37034 ft 463 kts 158°
2026-04-23 12:17 41.43573 20.44413 37035 ft 463 kts 159°
2026-04-23 12:17 41.37524 20.47383 37040 ft 463 kts 159°
2026-04-23 12:18 41.31474 20.50371 37027 ft 464 kts 158°
2026-04-23 12:18 41.25486 20.53606 37024 ft 465 kts 156°
2026-04-23 12:19 41.19565 20.56952 37023 ft 466 kts 156°
2026-04-23 12:19 41.13580 20.60268 37026 ft 466 kts 158°
2026-04-23 12:20 41.07529 20.63562 37053 ft 467 kts 158°
2026-04-23 12:20 41.01555 20.66800 37053 ft 467 kts 158°
2026-04-23 12:21 40.95538 20.70055 37049 ft 467 kts 158°
2026-04-23 12:21 40.89525 20.73305 37043 ft 467 kts 158°
2026-04-23 12:22 40.83517 20.76552 37032 ft 466 kts 158°
2026-04-23 12:22 40.77509 20.79790 37026 ft 466 kts 158°
2026-04-23 12:23 40.71500 20.83027 37030 ft 466 kts 158°
2026-04-23 12:23 40.65488 20.86263 37025 ft 467 kts 159°
2026-04-23 12:24 40.59474 20.89497 37022 ft 467 kts 159°
2026-04-23 12:24 40.53455 20.92717 37025 ft 467 kts 159°
2026-04-23 12:25 40.47613 20.96447 37022 ft 468 kts 146°
2026-04-23 12:25 40.43430 21.00958 37013 ft 469 kts 139°
2026-04-23 12:26 40.38526 21.06626 37010 ft 470 kts 139°
2026-04-23 12:26 40.33603 21.12288 37012 ft 471 kts 139°
2026-04-23 12:27 40.28668 21.17953 37026 ft 472 kts 140°
2026-04-23 12:27 40.23726 21.23612 37028 ft 472 kts 140°
2026-04-23 12:28 40.18776 21.29272 37020 ft 473 kts 140°
2026-04-23 12:28 40.13815 21.34936 37016 ft 474 kts 140°
2026-04-23 12:29 40.08845 21.40603 37019 ft 475 kts 140°
2026-04-23 12:29 40.03860 21.46271 37023 ft 475 kts 140°
2026-04-23 12:30 39.98863 21.51928 37027 ft 476 kts 140°
2026-04-23 12:30 39.93930 21.57682 37037 ft 476 kts 137°
2026-04-23 12:31 39.89301 21.63874 37031 ft 478 kts 134°
2026-04-23 12:31 39.84772 21.70216 37032 ft 479 kts 134°
2026-04-23 12:32 39.80176 21.76487 37031 ft 479 kts 135°
2026-04-23 12:32 39.75508 21.82672 37036 ft 479 kts 136°
2026-04-23 12:33 39.70829 21.88847 37040 ft 480 kts 136°
2026-04-23 12:33 39.66151 21.95036 37049 ft 480 kts 136°
2026-04-23 12:34 39.61476 22.01228 37035 ft 481 kts 136°
2026-04-23 12:34 39.56823 22.07379 37038 ft 481 kts 136°
2026-04-23 12:35 39.52134 22.13570 37038 ft 482 kts 136°
2026-04-23 12:35 39.47435 22.19761 37040 ft 482 kts 137°
2026-04-23 12:36 39.42729 22.25947 37045 ft 482 kts 137°
2026-04-23 12:36 39.38017 22.32124 37050 ft 482 kts 137°
2026-04-23 12:37 39.33300 22.38294 37045 ft 483 kts 137°
2026-04-23 12:37 39.28248 22.43937 37044 ft 480 kts 145°
2026-04-23 12:38 39.22970 22.49222 37043 ft 480 kts 146°
2026-04-23 12:38 39.17695 22.54504 37053 ft 480 kts 146°
2026-04-23 12:39 39.12414 22.59784 37057 ft 480 kts 146°
2026-04-23 12:39 39.07134 22.65053 37039 ft 481 kts 146°
2026-04-23 12:40 39.01849 22.70331 37045 ft 481 kts 146°
2026-04-23 12:40 38.96554 22.75590 37051 ft 481 kts 146°
2026-04-23 12:41 38.91254 22.80831 37055 ft 481 kts 146°
2026-04-23 12:41 38.85954 22.86078 37064 ft 481 kts 146°
2026-04-23 12:42 38.80659 22.91323 37035 ft 481 kts 147°
2026-04-23 12:42 38.75361 22.96551 37044 ft 481 kts 147°
2026-04-23 12:43 38.70054 23.01768 37051 ft 481 kts 147°
2026-04-23 12:43 38.64740 23.06974 37054 ft 481 kts 147°
2026-04-23 12:44 38.59428 23.12188 37050 ft 481 kts 147°
2026-04-23 12:44 38.54114 23.17397 37043 ft 481 kts 148°
2026-04-23 12:45 38.48830 23.22558 37041 ft 481 kts 148°
2026-04-23 12:45 38.43474 23.27779 37049 ft 481 kts 148°
2026-04-23 12:46 38.38183 23.32925 37052 ft 481 kts 148°
2026-04-23 12:46 38.32823 23.38133 37055 ft 481 kts 148°
2026-04-23 12:47 38.27530 23.43263 37050 ft 481 kts 148°
2026-04-23 12:47 38.22199 23.48416 37039 ft 481 kts 148°
2026-04-23 12:48 38.16867 23.53558 37038 ft 481 kts 148°
2026-04-23 12:48 38.11536 23.58695 37039 ft 481 kts 148°
2026-04-23 12:49 38.06207 23.63837 37036 ft 481 kts 148°
2026-04-23 12:49 38.00879 23.68965 37037 ft 481 kts 148°
2026-04-23 12:50 37.95544 23.74070 37045 ft 481 kts 149°
2026-04-23 12:50 37.90034 23.78738 37043 ft 469 kts 161°
2026-04-23 12:51 37.83968 23.81220 37045 ft 450 kts 179°
2026-04-23 12:51 37.77781 23.82224 37044 ft 448 kts 180°
2026-04-23 12:52 37.71595 23.83225 37019 ft 448 kts 181°
2026-04-23 12:52 37.65409 23.84223 37044 ft 448 kts 181°
2026-04-23 12:53 37.59227 23.85216 37029 ft 448 kts 181°
2026-04-23 12:53 37.53042 23.86214 36998 ft 448 kts 181°
2026-04-23 12:54 37.46860 23.87206 37004 ft 448 kts 181°
2026-04-23 12:54 37.40677 23.88183 37009 ft 448 kts 181°
2026-04-23 12:55 37.34495 23.89169 37009 ft 448 kts 181°
2026-04-23 12:55 37.28311 23.90154 36989 ft 448 kts 181°
2026-04-23 12:56 37.22132 23.91134 36999 ft 448 kts 181°
2026-04-23 12:56 37.15991 23.92110 37004 ft 448 kts 181°
2026-04-23 12:57 37.09769 23.93096 36786 ft 448 kts 181°
2026-04-23 12:57 37.06680 23.93584 36481 ft 447 kts 181°
2026-04-23 12:57 37.03594 23.94071 36225 ft 446 kts 181°
2026-04-23 12:58 37.00512 23.94556 35971 ft 446 kts 181°
2026-04-23 12:58 36.97432 23.95038 35723 ft 446 kts 181°
2026-04-23 12:58 36.94348 23.95521 35472 ft 447 kts 181°
2026-04-23 12:58 36.91265 23.96008 35226 ft 447 kts 181°
2026-04-23 12:59 36.88177 23.96496 34982 ft 447 kts 182°
2026-04-23 12:59 36.85218 23.96961 34569 ft 448 kts 182°
2026-04-23 12:59 36.82114 23.97446 33642 ft 451 kts 181°
2026-04-23 12:59 36.78987 23.97931 32653 ft 454 kts 181°
2026-04-23 13:00 36.75871 23.98419 32141 ft 447 kts 181°
2026-04-23 13:00 36.72801 23.98906 31522 ft 443 kts 181°
2026-04-23 13:00 36.69754 23.99391 30915 ft 439 kts 181°
2026-04-23 13:00 36.66736 23.99871 30317 ft 436 kts 181°
2026-04-23 13:01 36.63734 24.00344 29660 ft 433 kts 181°
2026-04-23 13:01 36.60763 24.00807 29030 ft 428 kts 181°
2026-04-23 13:01 36.57831 24.01262 28502 ft 422 kts 181°
2026-04-23 13:01 36.54973 24.01705 27937 ft 418 kts 181°
2026-04-23 13:02 36.52094 24.02151 27384 ft 414 kts 181°
2026-04-23 13:02 36.49240 24.02594 26823 ft 411 kts 181°
2026-04-23 13:02 36.46414 24.03034 26289 ft 408 kts 180°
2026-04-23 13:02 36.43630 24.03834 25748 ft 416 kts 168°
2026-04-23 13:03 36.40982 24.05350 25219 ft 424 kts 156°
2026-04-23 13:03 36.38595 24.07568 24663 ft 434 kts 142°
2026-04-23 13:03 36.36606 24.10415 24103 ft 440 kts 131°
2026-04-23 13:03 36.34794 24.13476 23526 ft 439 kts 131°
2026-04-23 13:04 36.32981 24.16510 22930 ft 437 kts 131°
2026-04-23 13:04 36.31173 24.19519 22389 ft 434 kts 131°
2026-04-23 13:04 36.29395 24.22469 21855 ft 431 kts 131°
2026-04-23 13:04 36.27579 24.25477 21285 ft 429 kts 131°
2026-04-23 13:05 36.25793 24.28432 20731 ft 428 kts 131°
2026-04-23 13:05 36.23876 24.31140 20164 ft 420 kts 144°
2026-04-23 13:05 36.21495 24.33213 19625 ft 408 kts 159°
2026-04-23 13:05 36.18930 24.34447 19135 ft 395 kts 173°
2026-04-23 13:06 36.13681 24.34631 18157 ft 367 kts 199°
2026-04-23 13:06 36.11214 24.33928 17671 ft 362 kts 200°
2026-04-23 13:06 36.08775 24.33237 17215 ft 358 kts 200°
2026-04-23 13:07 36.06357 24.32565 16769 ft 353 kts 199°
2026-04-23 13:07 36.03974 24.31907 16327 ft 349 kts 199°
2026-04-23 13:07 36.01617 24.31251 15900 ft 346 kts 200°
2026-04-23 13:07 35.99276 24.30596 15400 ft 345 kts 200°
2026-04-23 13:08 35.96940 24.29940 14935 ft 343 kts 200°
2026-04-23 13:08 35.94617 24.29287 14462 ft 342 kts 200°
2026-04-23 13:08 35.92302 24.28634 14001 ft 341 kts 199°
2026-04-23 13:08 35.89998 24.27986 13763 ft 335 kts 200°
2026-04-23 13:09 35.87759 24.27363 13629 ft 325 kts 200°
2026-04-23 13:09 35.85589 24.26765 13489 ft 313 kts 200°
2026-04-23 13:09 35.83500 24.26189 13355 ft 302 kts 200°
2026-04-23 13:09 35.81445 24.25813 13225 ft 302 kts 184°
2026-04-23 13:10 35.79426 24.26616 13089 ft 313 kts 152°
2026-04-23 13:10 35.77960 24.28605 12894 ft 320 kts 120°
2026-04-23 13:10 35.77347 24.31231 12377 ft 321 kts 99°
2026-04-23 13:10 35.76958 24.33933 11741 ft 320 kts 107°
2026-04-23 13:11 35.76160 24.36441 11260 ft 311 kts 122°
2026-04-23 13:11 35.74953 24.38637 10881 ft 308 kts 134°
2026-04-23 13:11 35.73542 24.40590 10535 ft 305 kts 139°
2026-04-23 13:11 35.72039 24.42409 10249 ft 300 kts 142°
2026-04-23 13:12 35.71024 24.43545 9950 ft 296 kts 144°
2026-04-23 13:12 35.68909 24.45634 9399 ft 290 kts 149°
2026-04-23 13:12 35.67258 24.47014 8831 ft 284 kts 154°
2026-04-23 13:12 35.65552 24.48153 8422 ft 273 kts 168°
2026-04-23 13:13 35.63719 24.48479 8049 ft 269 kts 182°
2026-04-23 13:13 35.61839 24.48801 7724 ft 269 kts 175°
2026-04-23 13:13 35.60619 24.49074 7632 ft 259 kts 175°
2026-04-23 13:13 35.58882 24.49480 7310 ft 251 kts 175°
2026-04-23 13:14 35.57177 24.49880 6863 ft 248 kts 175°
2026-04-23 13:14 35.55489 24.50258 6386 ft 246 kts 175°
2026-04-23 13:14 35.53804 24.50616 6041 ft 244 kts 175°
2026-04-23 13:14 35.52136 24.50962 5697 ft 242 kts 175°
2026-04-23 13:15 35.50479 24.51293 5336 ft 241 kts 175°
2026-04-23 13:15 35.48830 24.51576 4992 ft 237 kts 182°
2026-04-23 13:15 35.47286 24.51135 4675 ft 225 kts 214°
2026-04-23 13:15 35.46252 24.49788 4312 ft 218 kts 245°
2026-04-23 13:16 35.45732 24.48046 4026 ft 217 kts 253°
2026-04-23 13:16 35.45321 24.46283 4010 ft 220 kts 255°
2026-04-23 13:16 35.44911 24.44465 3940 ft 220 kts 255°
2026-04-23 13:16 35.44513 24.42647 3586 ft 221 kts 256°
2026-04-23 13:17 35.44454 24.40775 3297 ft 222 kts 283°
2026-04-23 13:17 35.44936 24.38971 3017 ft 223 kts 291°
2026-04-23 13:17 35.45584 24.37258 2722 ft 221 kts 298°
2026-04-23 13:17 35.46272 24.35584 2437 ft 219 kts 296°
2026-04-23 13:18 35.46879 24.33885 2233 ft 213 kts 296°
2026-04-23 13:18 35.47439 24.32271 2229 ft 195 kts 296°
2026-04-23 13:18 35.47928 24.30828 2196 ft 171 kts 296°
2026-04-23 13:18 35.48345 24.29555 2185 ft 153 kts 296°
2026-04-23 13:19 35.48735 24.28364 2193 ft 148 kts 295°
2026-04-23 13:19 35.49118 24.27205 2197 ft 146 kts 296°
2026-04-23 13:19 35.49500 24.26043 2173 ft 148 kts 295°
2026-04-23 13:19 35.49883 24.24882 1991 ft 144 kts 297°
2026-04-23 13:20 35.50255 24.23753 1803 ft 142 kts 296°
2026-04-23 13:20 35.50632 24.22634 1605 ft 141 kts 296°
2026-04-23 13:20 35.51033 24.21534 1419 ft 141 kts 297°
2026-04-23 13:20 35.51417 24.20425 1205 ft 142 kts 293°
2026-04-23 13:21 35.51754 24.19296 1053 ft 140 kts 296°
2026-04-23 13:21 35.52129 24.18211 842 ft 137 kts 297°
2026-04-23 13:21 35.52476 24.17124 648 ft 136 kts 297°
2026-04-23 13:21 35.52820 24.16086 565 ft 118 kts 293°
2026-04-23 13:22 35.53078 24.15290 560 ft 81 kts 291°
2026-04-23 13:22 35.53247 24.14772 557 ft 54 kts 291°
2026-04-23 13:22 35.53372 24.14380 556 ft 32 kts 292°
2026-04-23 13:22 35.53436 24.14263 560 ft 12 kts 353°
2026-04-23 13:23 35.53516 24.14304 562 ft 13 kts 21°
2026-04-23 13:23 35.53607 24.14348 564 ft 15 kts 21°
2026-04-23 13:23 35.53686 24.14350 560 ft 12 kts 308°
2026-04-23 13:23 35.53714 24.14264 562 ft 10 kts 292°
2026-04-23 13:24 35.53737 24.14193 556 ft 8 kts 291°
2026-04-23 13:24 35.53757 24.14130 562 ft 7 kts 291°
2026-04-23 13:24 35.53783 24.14068 561 ft 8 kts 323°
2026-04-23 13:24 35.53835 24.14080 560 ft 8 kts 21°
2026-04-23 13:25 35.53859 24.14091 556 ft 2 kts 21°
2026-04-23 13:25 35.53863 24.14093 556 ft 0 kts 21°